Погода Сенно

Погода Сенно : погода сейчас, прогноз погоды и архив. Всё, что Вы хотите узнать о погоде Сенно!

Хотите узнать прогноз погоды Сенно? Тогда Вам сюда: Погода Сенно

Поиск расширенной информации на нашем сайте:

Другие новости

Новости СМИ2

Главная страница сайта

Новости сайта

03.07.2017

Напоминаем, что на нашем специализированном сайте Метеоцентр.Азия вы можете получить высокодетализированные автоматические прогнозы погоды по пунктам России, СНГ и мира в авиационном формате (включающие направление и скорость ветра, видимость, явления погоды, количество и форму облачности, нижнюю и верхнюю границу облачности).


Погода Сенно - сегодня

Время (UTC), дата Ветер
(°,м/с) 
Видим.   Явления Облачность Т
(°С)
Тd
(°С)
f(%) Тe
(°С)
Pmin
(гПа)
dP
(гПа)
Po
(мм)
O2
(г/м3)
Тmin Tmax R s Состояние
почвы
18 06.10.18 200 (Ю) 30000 м    ясно 
+10.8 +6.1 73 +12  1015.7  -0.9  746  288    +16.7       
06 07.10.18 190 (Ю) 23000 м    ясно 
+9 +6.4 84 +8  1011.1  -0.9  742  289  +7.4         
18 07.10.18 190 (Ю) 8000 м  слаб. ливневой дождь  10/10 600 м кучево-дожд. 
[Cb calv]
+15.7 +11.7 77 +20  1008.1  -0.7  741  280    +17.7  0.0     
06 08.10.18 330 (СЗ) 35000 м  {ливн. осадки}  10/10 400 м 
[Frnb]
+5.4 +3 84 +4  1021.2  3.7  750  296  +5.4       
18 08.10.18 тихо ()   17000 м    ясно 
+4.3 +2.8 90 +4  1026.5  0.9  753  298    +9.2       
06 09.10.18 тихо ()   27000 м    10/0 средняя 
[Ac As]
+5.2 +3.7 90 +5  1027.3  0.6  754  298  +1.8         
18 09.10.18 200 (Ю) 35000 м    ясно 
+7.5 +4.1 79 +7  1026  -0.1  753  295    +12.4  0.0     
06 10.10.18 200 (Ю) 29000 м    9/0 средняя 
[Ac und]
+7.3 +5.1 86 +7  1025.9  753  295  +5.3         
18 10.10.18 240 (ЮЗ) 19000 м    ясно 
+11 +8.9 87 +12  1026.8  1.5  754  291    +15.9       
06 11.10.18 тихо ()   18000 м    9/9 630 м 
[Sc]
+10.4 +9.1 92 +10  1031.6  1.3  758  292  +9.7         
18 11.10.18 тихо ()   17000 м    ясно 
+9.8 +9.3 97 +10  1033.5  759  294    +17.9       
06 12.10.18 160 (Ю) 22000 м    ясно 
+5.7 +5.7 100 +7  1036.2  0.6  761  299  +3.2         
18 12.10.18 тихо ()   19000 м    ясно 
+8.9 +7.8 93 +9  1033.8  -0.4  759  295    +17.8       
06 13.10.18 190 (Ю) 21000 м    ясно 
+8.6 +6.6 87 +9  1032.7  -0.6  758  295  +6.4         
18 13.10.18 240 (ЮЗ) 20000 м    ясно 
+12.2 +9.1 81 +13  1030.9  -0.2  757  290    +18.3       
06 14.10.18 тихо ()   7000 м  дымка  6/0 верхняя 
[Ci fib]
+7.3 +7.3 100 +7  1031.8  0.2  758  296  +5.6         
18 14.10.18 210 (ЮЗ) 21000 м    ясно 
+9.3 +8.1 92 +10  1029.9  756  293    +19.9       
06 15.10.18 180 (Ю) 20000 м    ясно 
+7.6 +5.4 86 +9  1030  0.1  756  296  +4.5         
18 15.10.18 170 (Ю) 29000 м    ясно 
+10.1 +5.2 72 +11  1027.9  -0.6  755  292    +18.8       
06 16.10.18 180 (Ю) 29000 м    3/0 верхняя 
[Ci fib]
+9.5 +4.1 69 +11  1027.1  -0.2  754  293  +7         
18 16.10.18 150 (ЮВ) 29000 м    ясно 
+9.2 +6.3 82 +10  1025.9  753  293    +19.9       
06 17.10.18 190 (Ю) 16000 м    ясно 
+9.7 +7.3 85 +11  1025.8  0.3  753  292  +7.2         
18 17.10.18 190 (Ю) 27000 м    ясно 
+14.4 +7.9 65 +15  1024.9  753  287    +21       
06 18.10.18 тихо ()   14000 м    ясно 
+8.2 +6.6 90 +8  1023.9  -0.6  752  293  +6.1         
18 18.10.18 150 (ЮВ) 12000 м    ясно 
+12 +10.6 91 +15  1019.3  -0.6  749  287    +21.8       
Время (UTC), дата Ветер
(°,м/с) 
Видим.   Явления Облачность Т
(°С)
Тd
(°С)
f(%) Тe
(°С)
Pmin
(гПа)
dP
(гПа)
Po
(мм)
O2
(г/м3)
Тmin Tmax R s Состояние
почвы

Для получения пояснительной информации подведите курсор к названию столбца.

ПОГОДА Сенно - архив

Всё, что Вы хотите узнать о погоде Сенно - удобно и подробно!

Выберите нужную дату (начиная с 1 января 2015* года) и нажмите кнопку "Найти".
Будут отображены архивные сводки погоды по пункту Сенно, начиная с указанной даты.


Отображать данные в формате CSV (для использования в таблицах Excel)


Внимание! Наш архив погоды предназначен исключительно для личного некоммерческого использования в познавательных целях. Если Вам необходимы официальные справки о состоянии погоды (для производственных, юридических, коммерческих и т.п. целей), обращайтесь в органы Росгидромета.

*Примечание: данная дата относится к архиву по метеостанциям СССР (Россия, СНГ, Балтия).
Архив по метеостанциям Зарубежной Европы и Азии (кроме Китая) хранится 10 дней, по другим регионам земного шара (Китай, Африка, Америка, Австралия, Океания) - 1 день.

Сенно - район местоположения метеостанции


Название, широта, долгота, высота метеостанции:
Сенно 54.8°ш. 29.7°д. 176 м над ур. моря [Беларусь]

Дополнительная информация

В oтличие oт бoльшинства пoгoдных сайтoв мы публикуем пoдрoбную метеoинфoрмацию в детальнoм прoфессиoнальнoм фoрмате.

Характеристики температуры и влажнoсти вoздуха измеряются на высoте 2 м в тени вдали oт зданий и деревьев.
Скoрoсть ветра измеряется на высoте 10 м (на урoвне рoста челoвека скoрoсть ветра ниже в 1.5-2 раза). Если метеoстанция нахoдится в гoрoде или в лесу, тo скoрoсть ветра занижена на 2-4 м/с пo сравнению с oткрытым местoм. Скoрoсть ветра над акватoриями крупных рек и oзёр, а также на вершинах хoлмoв на 2-5 м/с выше, чем в oбычных услoвиях.
Атмoсфернoе давление в разных тoчках местнoсти мoжет значительнo oтличаться oт давления на метеoстанции, в зависимoсти oт услoвий рельефа (при пoдъёме на 10 м давление пoнижается примернo на 1 мм рт.ст.).